Newton, KS

6:32 PM CDT on September 22, 2019 (GMT -0500)
Newton City County

Weather History for KEWK - July, 2019

Change the Weather History Date:

Friday, July 26, 2019

  Actual Average Record
Temperature  
Mean Temperature 77 °F -  
Max Temperature 90 °F 87 °F 104 °F (2002)
Min Temperature 64 °F 67 °F 55 °F (2004)
Cooling Degree Days 12    
Growing Degree Days 27 (Base 50)    
Moisture  
Dew Point 58 °F    
Average Humidity 53    
Maximum Humidity 78    
Minimum Humidity 34    
Precipitation  
Precipitation 0.00 in - - ()
Sea Level Pressure  
Sea Level Pressure 30.09 in    
Wind  
Wind Speed 13 mph (South)    
Max Wind Speed 23 mph    
Max Gust Speed 25 mph    
Visibility 10 miles    
Events      
Averages and records for this station are not official NWS values.
T = Trace of Precipitation, MM = Missing Value Source: NWS Daily Summary

Daily Weather History Graph

Daily Weather History Graph

Search for Another Location

Airport or City:

Astronomy

Jul. 26, 2019 Rise Set
Actual Time 6:26 AM CDT 8:44 PM CDT
Civil Twilight 5:57 AM CDT 9:13 PM CDT
Nautical Twilight 5:20 AM CDT 9:50 PM CDT
Astronomical Twilight 4:40 AM CDT 10:30 PM CDT
Moon 1:38 AM CDT (7/26) 3:32 PM CDT (7/26)
Length of Visible Light 15h 16m
Length of Day
14h 17m
Waning Crescent, 34% of the Moon is Illuminated
Jul 26
Waning Crescent
Jul 31
New
Aug 7
First Quarter
Aug 15
Full
Aug 23
Last Quarter

Hourly Weather History & Observations

Time (CDT) Temp. Heat Index Dew Point Humidity Pressure Visibility Wind Dir Wind Speed Gust Speed Precip Events Conditions
12:56 AM 71.1 °F - 55.9 °F 59% 30.08 in 10.0 mi SSE 11.5 mph - N/A   Unknown
1:56 AM 70.0 °F - 55.9 °F 61% 30.07 in 10.0 mi South 11.5 mph - N/A   Unknown
2:56 AM 66.9 °F - 55.9 °F 68% 30.07 in 10.0 mi South 10.4 mph - N/A   Unknown
3:56 AM 66.9 °F - 57.0 °F 70% 30.08 in 10.0 mi South 10.4 mph - N/A   Unknown
4:56 AM 66.0 °F - 57.0 °F 73% 30.08 in 10.0 mi SSE 9.2 mph - N/A   Unknown
5:56 AM 66.0 °F - 57.0 °F 73% 30.08 in 10.0 mi SSE 9.2 mph - N/A   Unknown
6:56 AM 64.9 °F - 57.9 °F 78% 30.10 in 10.0 mi SSE 10.4 mph - N/A   Unknown
7:56 AM 68.0 °F - 59.0 °F 73% 30.11 in 10.0 mi South 12.7 mph - N/A   Unknown
8:56 AM 75.0 °F - 57.9 °F 55% 30.12 in 10.0 mi South 20.7 mph - N/A   Unknown
9:56 AM 78.1 °F - 57.9 °F 50% 30.12 in 10.0 mi SSW 19.6 mph - N/A   Unknown
10:56 AM 81.0 °F 81.1 °F 57.9 °F 45% 30.11 in 10.0 mi SSW 23.0 mph - N/A   Unknown
11:56 AM 84.0 °F 84.0 °F 60.1 °F 44% 30.11 in 10.0 mi South 21.9 mph 25.3 mph N/A   Unknown
12:56 PM 86.0 °F 85.0 °F 57.9 °F 38% 30.10 in 10.0 mi South 15.0 mph 24.2 mph N/A   Unknown
1:56 PM 88.0 °F 86.9 °F 57.9 °F 36% 30.09 in 10.0 mi SSW 17.3 mph - N/A   Partly Cloudy
2:56 PM 88.0 °F 86.9 °F 57.9 °F 36% 30.08 in 10.0 mi South 15.0 mph 24.2 mph N/A   Unknown
3:56 PM 90.0 °F 88.8 °F 57.9 °F 34% 30.07 in 10.0 mi SSW 16.1 mph 23.0 mph N/A   Clear
4:56 PM 90.0 °F 88.8 °F 57.9 °F 34% 30.06 in 10.0 mi SSW 12.7 mph - N/A   Unknown
5:56 PM 89.1 °F 88.2 °F 59.0 °F 36% 30.04 in 10.0 mi South 17.3 mph - N/A   Clear
6:56 PM 86.0 °F 85.4 °F 59.0 °F 40% 30.04 in 10.0 mi South 11.5 mph - N/A   Clear
7:56 PM 82.9 °F 82.8 °F 59.0 °F 44% 30.06 in 10.0 mi South 13.8 mph - N/A   Clear
8:56 PM 80.1 °F 80.6 °F 57.9 °F 47% 30.07 in 10.0 mi SSE 10.4 mph - N/A   Unknown
9:56 PM 77.0 °F - 57.9 °F 52% 30.09 in 10.0 mi SSE 12.7 mph - N/A   Unknown
10:56 PM 73.9 °F - 57.9 °F 57% 30.12 in 10.0 mi SSE 9.2 mph - N/A   Unknown
11:56 PM 72.0 °F - 59.0 °F 64% 30.11 in 10.0 mi SSE 11.5 mph - N/A   Unknown